EN

Hourly Weather Krosno

Today, 24 October, Saturday

Time Temperature Precipitation Wind Pressure Humidity
00:00 +14°C° 0.5 mm 4 mps 752 mmHg 93%
01:00 +14°C° 0.5 mm 4 mps 752 mmHg 93%
02:00 +13°C° 0.1 mm 3 mps 752 mmHg 91%
03:00 +14°C° 0.1 mm 2 mps 752 mmHg 90%
04:00 +12°C° 0.1 mm 0 mps 752 mmHg 88%
05:00 +13°C° 0 mm 1 mps 753 mmHg 90%
06:00 +12°C° 0 mm 2 mps 753 mmHg 91%
07:00 +12°C° 0 mm 2 mps 753 mmHg 93%
08:00 +12°C° 0 mm 3 mps 754 mmHg 90%
09:00 +13°C° 0 mm 4 mps 754 mmHg 87%
10:00 +14°C° 0 mm 4 mps 754 mmHg 84%
11:00 +15°C° 0 mm 4 mps 754 mmHg 79%
12:00 +16°C° 0 mm 5 mps 754 mmHg 74%
13:00 +16°C° 0 mm 5 mps 754 mmHg 69%
14:00 +17°C° 0 mm 4 mps 754 mmHg 71%
15:00 +15°C° 0 mm 4 mps 754 mmHg 73%
16:00 +16°C° 0 mm 3 mps 754 mmHg 75%
17:00 +14°C° 0 mm 3 mps 755 mmHg 79%
18:00 +13°C° 0 mm 3 mps 755 mmHg 82%
19:00 +12°C° 0 mm 3 mps 755 mmHg 86%
20:00 +11°C° 0 mm 3 mps 755 mmHg 88%
21:00 +11°C° 0 mm 3 mps 756 mmHg 89%
22:00 +11°C° 0 mm 3 mps 756 mmHg 91%
23:00 +10°C° 0 mm 3 mps 756 mmHg 91%

Tomorrow, 25 October, Sunday

Time Temperature Precipitation Wind Pressure Humidity
00:00 +10°C° 0 mm 2 mps 756 mmHg 91%
01:00 +10°C° 0 mm 2 mps 756 mmHg 91%
02:00 +10°C° 0 mm 2 mps 755 mmHg 91%
03:00 +9°C° 0 mm 2 mps 755 mmHg 91%
04:00 +9°C° 0 mm 2 mps 755 mmHg 91%
05:00 +9°C° 0 mm 2 mps 755 mmHg 92%
06:00 +9°C° 0 mm 2 mps 755 mmHg 92%
07:00 +9°C° 0 mm 2 mps 755 mmHg 92%
08:00 +10°C° 0 mm 3 mps 755 mmHg 86%
09:00 +12°C° 0 mm 4 mps 754 mmHg 80%
10:00 +13°C° 0 mm 4 mps 754 mmHg 75%
11:00 +15°C° 0 mm 4 mps 754 mmHg 70%
12:00 +17°C° 0 mm 4 mps 754 mmHg 66%
13:00 +18°C° 0 mm 4 mps 753 mmHg 62%
14:00 +17°C° 0 mm 4 mps 753 mmHg 66%
15:00 +16°C° 0 mm 3 mps 752 mmHg 70%
16:00 +16°C° 0 mm 3 mps 752 mmHg 74%
17:00 +14°C° 0 mm 3 mps 752 mmHg 78%
18:00 +13°C° 0 mm 4 mps 752 mmHg 82%
19:00 +12°C° 0 mm 4 mps 752 mmHg 87%
20:00 +12°C° 0 mm 4 mps 752 mmHg 87%
21:00 +12°C° 0 mm 4 mps 751 mmHg 88%
22:00 +11°C° 0 mm 4 mps 751 mmHg 89%
23:00 +11°C° 0 mm 4 mps 751 mmHg 89%

Day after tomorrow, 26 October, Monday

Time Temperature Precipitation Wind Pressure Humidity
00:00 +10°C° 0 mm 3 mps 751 mmHg 90%
01:00 +10°C° 0 mm 3 mps 750 mmHg 91%
02:00 +10°C° 0 mm 3 mps 750 mmHg 92%
03:00 +10°C° 0 mm 3 mps 750 mmHg 92%
04:00 +9°C° 0 mm 2 mps 750 mmHg 92%
05:00 +9°C° 0 mm 2 mps 750 mmHg 92%
06:00 +9°C° 0 mm 2 mps 749 mmHg 93%
07:00 +9°C° 0 mm 2 mps 749 mmHg 93%
08:00 +12°C° 0 mm 2 mps 749 mmHg 87%
09:00 +13°C° 0 mm 2 mps 749 mmHg 82%
10:00 +15°C° 0 mm 2 mps 749 mmHg 76%
11:00 +14°C° 0 mm 3 mps 749 mmHg 74%
12:00 +16°C° 0 mm 3 mps 749 mmHg 71%
13:00 +15°C° 0 mm 4 mps 749 mmHg 69%
14:00 +16°C° 0.1 mm 3 mps 749 mmHg 73%
15:00 +14°C° 0.1 mm 3 mps 748 mmHg 76%
16:00 +14°C° 0.1 mm 2 mps 748 mmHg 80%
17:00 +14°C° 0.1 mm 2 mps 749 mmHg 82%
18:00 +14°C° 0.1 mm 2 mps 749 mmHg 84%
19:00 +13°C° 0.1 mm 2 mps 749 mmHg 86%
20:00 +13°C° 0 mm 2 mps 749 mmHg 89%
21:00 +12°C° 0 mm 2 mps 749 mmHg 91%
22:00 +12°C° 0 mm 2 mps 750 mmHg 94%
23:00 +10°C° 0 mm 2 mps 750 mmHg 93%

, 27 October, Tuesday

Time Temperature Precipitation Wind Pressure Humidity
00:00 +10°C° 0 mm 2 mps 750 mmHg 92%
01:00 +10°C° 0 mm 2 mps 750 mmHg 92%
02:00 +10°C° 0 mm 2 mps 750 mmHg 91%
03:00 +10°C° 0 mm 2 mps 750 mmHg 91%
04:00 +10°C° 0 mm 1 mps 750 mmHg 91%
05:00 +10°C° 0.2 mm 1 mps 750 mmHg 91%
06:00 +10°C° 0.2 mm 1 mps 750 mmHg 91%
07:00 +11°C° 0.2 mm 1 mps 750 mmHg 91%
08:00 +11°C° 0.2 mm 1 mps 751 mmHg 91%
09:00 +11°C° 0.2 mm 1 mps 751 mmHg 91%
10:00 +11°C° 0.2 mm 1 mps 751 mmHg 91%
11:00 +11°C° 0.2 mm 1 mps 751 mmHg 91%
12:00 +11°C° 0.2 mm 1 mps 751 mmHg 90%
13:00 +11°C° 0.2 mm 1 mps 751 mmHg 89%
14:00 +11°C° 0.5 mm 1 mps 751 mmHg 91%
15:00 +10°C° 0.5 mm 2 mps 751 mmHg 92%
16:00 +10°C° 0.5 mm 2 mps 751 mmHg 94%
17:00 +9°C° 0.2 mm 2 mps 751 mmHg 94%
18:00 +9°C° 0.2 mm 2 mps 752 mmHg 94%
19:00 +10°C° 0.2 mm 1 mps 752 mmHg 94%
20:00 +9°C° 0 mm 2 mps 753 mmHg 93%
21:00 +9°C° 0 mm 2 mps 753 mmHg 93%
22:00 +9°C° 0 mm 2 mps 753 mmHg 92%
23:00 +8°C° 0 mm 2 mps 753 mmHg 91%

27 October, Tuesday

Time Temperature Precipitation Wind Pressure Humidity
00:00 +10°C° 0 mm 2 mps 750 mmHg 92%
01:00 +10°C° 0 mm 2 mps 750 mmHg 92%
02:00 +10°C° 0 mm 2 mps 750 mmHg 91%
03:00 +10°C° 0 mm 2 mps 750 mmHg 91%
04:00 +10°C° 0 mm 1 mps 750 mmHg 91%
05:00 +10°C° 0.2 mm 1 mps 750 mmHg 91%
06:00 +10°C° 0.2 mm 1 mps 750 mmHg 91%
07:00 +11°C° 0.2 mm 1 mps 750 mmHg 91%
08:00 +11°C° 0.2 mm 1 mps 751 mmHg 91%
09:00 +11°C° 0.2 mm 1 mps 751 mmHg 91%
10:00 +11°C° 0.2 mm 1 mps 751 mmHg 91%
11:00 +11°C° 0.2 mm 1 mps 751 mmHg 91%
12:00 +11°C° 0.2 mm 1 mps 751 mmHg 90%
13:00 +11°C° 0.2 mm 1 mps 751 mmHg 89%
14:00 +11°C° 0.5 mm 1 mps 751 mmHg 91%
15:00 +10°C° 0.5 mm 2 mps 751 mmHg 92%
16:00 +10°C° 0.5 mm 2 mps 751 mmHg 94%
17:00 +9°C° 0.2 mm 2 mps 751 mmHg 94%
18:00 +9°C° 0.2 mm 2 mps 752 mmHg 94%
19:00 +10°C° 0.2 mm 1 mps 752 mmHg 94%
20:00 +9°C° 0 mm 2 mps 753 mmHg 93%
21:00 +9°C° 0 mm 2 mps 753 mmHg 93%
22:00 +9°C° 0 mm 2 mps 753 mmHg 92%
23:00 +8°C° 0 mm 2 mps 753 mmHg 91%

28 October, Wednesday

Time Temperature Precipitation Wind Pressure Humidity
00:00 +8°C° 0 mm 3 mps 753 mmHg 91%
01:00 +7°C° 0 mm 3 mps 753 mmHg 90%
02:00 +7°C° 0 mm 3 mps 754 mmHg 90%
03:00 +7°C° 0 mm 3 mps 754 mmHg 89%
04:00 +7°C° 0 mm 3 mps 754 mmHg 89%
05:00 +7°C° 0 mm 3 mps 754 mmHg 89%
06:00 +7°C° 0 mm 3 mps 754 mmHg 89%
07:00 +6°C° 0 mm 4 mps 754 mmHg 88%
08:00 +7°C° 0 mm 4 mps 754 mmHg 82%
09:00 +9°C° 0 mm 5 mps 754 mmHg 75%
10:00 +10°C° 0 mm 5 mps 754 mmHg 69%
11:00 +12°C° 0 mm 5 mps 754 mmHg 66%
12:00 +13°C° 0 mm 5 mps 753 mmHg 63%
13:00 +13°C° 0 mm 5 mps 753 mmHg 59%
14:00 +13°C° 0 mm 4 mps 753 mmHg 62%
15:00 +12°C° 0 mm 4 mps 753 mmHg 65%
16:00 +12°C° 0 mm 3 mps 753 mmHg 68%
17:00 +11°C° 0 mm 3 mps 753 mmHg 70%
18:00 +10°C° 0 mm 3 mps 753 mmHg 72%
19:00 +10°C° 0 mm 3 mps 754 mmHg 73%
20:00 +9°C° 0 mm 3 mps 754 mmHg 75%
21:00 +9°C° 0 mm 3 mps 754 mmHg 77%
22:00 +8°C° 0 mm 3 mps 754 mmHg 78%
23:00 +8°C° 0 mm 3 mps 754 mmHg 79%

29 October, Thursday

Time Temperature Precipitation Wind Pressure Humidity
00:00 +8°C° 0 mm 3 mps 754 mmHg 80%
01:00 +7°C° 0 mm 4 mps 754 mmHg 80%
02:00 +7°C° 0 mm 4 mps 754 mmHg 81%
03:00 +7°C° 0 mm 4 mps 754 mmHg 81%
04:00 +8°C° 0 mm 4 mps 753 mmHg 82%
05:00 +8°C° 0 mm 4 mps 754 mmHg 81%
06:00 +8°C° 0 mm 4 mps 754 mmHg 80%
07:00 +8°C° 0 mm 4 mps 754 mmHg 79%
08:00 +10°C° 0 mm 5 mps 754 mmHg 76%
09:00 +11°C° 0 mm 6 mps 754 mmHg 73%
10:00 +12°C° 0 mm 8 mps 754 mmHg 69%
11:00 +12°C° 0.1 mm 7 mps 755 mmHg 66%
12:00 +14°C° 0.1 mm 7 mps 755 mmHg 63%
13:00 +14°C° 0.1 mm 7 mps 755 mmHg 59%
14:00 +13°C° 0 mm 6 mps 755 mmHg 63%
15:00 +12°C° 0 mm 5 mps 756 mmHg 66%
16:00 +12°C° 0 mm 4 mps 756 mmHg 70%
17:00 +11°C° 0 mm 4 mps 756 mmHg 73%
18:00 +10°C° 0 mm 3 mps 757 mmHg 76%
19:00 +9°C° 0 mm 3 mps 757 mmHg 79%
20:00 +9°C° 0 mm 3 mps 757 mmHg 80%
21:00 +9°C° 0 mm 3 mps 757 mmHg 81%
22:00 +7°C° 0 mm 4 mps 758 mmHg 83%
23:00 +8°C° 0 mm 4 mps 758 mmHg 82%
Show more

We Need Your Consent

Meteoprog and our Service Providers may store and access personal data such as cookies, device identifiers or other similar technologies on your device and process such data to personalise content and ads, as well as provide social media features and to analyse the traffic.

  • Store and/or access information on your device

    Cookies, device identifiers or other information can be stored or accessed on your device for the purposes indicated above.

  • Personalised ads and content, ad and content measurement, audience insights, and products development

    Ads and content can be personalised based on a profile. More data can be added to better personalise ads and content. Ad and content performance can be measured. Insights about the audience who saw the ads and content can be derived. Such data can be used to develop or improve user’s experience, systems and software.

By clicking ‘I Agree’ you will allow the use of indicated cookies, device identifiers, web beacons or other similar technologies. Your settings can be changed in the browser on your device.

For certain purposes, legitimate interests may be relied on, rather than consent. You can read more about this in our Privacy and Cookie Policy.